Regional Weather Roundup
Issued by NWS

Home | Current Version | Previous Version | Text Only | Print | Product List | Glossary Off
Versions: 1 2 3 4 5 6 7 8 9 10 11 12 13 14 15 16 17 18 19 20 21 22 23 24 25 26 27 28 29 30 31 32 33 34 35 36 37 38 39 40 41 42 43 44 45 46 47 48 49 50

320
ASUS45 KCYS 260410
RWRWY

WYOMING REGIONAL WEATHER ROUNDUP
NATIONAL WEATHER SERVICE CHEYENNE WY
1000 PM MDT THU AUG 25 2016

NOTE:  "FAIR" INDICATES FEW OR NO CLOUDS BELOW 12,000 FEET
WITH NO SIGNIFICANT WEATHER AND/OR OBSTRUCTIONS TO VISIBILITY.

WYZ001-260500-
YELLOWSTONE NATIONAL PARK

CITY           SKY/WX    TMP DP  RH WIND       PRES   REMARKS
LK YELLOWSTONE   N/A     48  32  53 CALM      30.28R
W YELLOWSTONE  NOT AVBL

$$
WYZ002>013-054>058-071-098>099-260500-
NORTHERN WYOMING

CITY           SKY/WX    TMP DP  RH WIND       PRES   REMARKS
JACKSON        FAIR      52  34  50 SW7       30.19R
CODY           CLOUDY    57  43  58 CALM      30.19S
GREYBULL       MOCLDY    65  36  34 NW6       30.13R
WORLAND        MOCLDY    57  48  72 S10       30.14S
SHERIDAN       FAIR      53  44  71 CALM      30.17R
BUFFALO        FAIR      58  41  53 S5        30.21F
GILLETTE       FAIR      53  39  59 S6        30.19S
HULETT         FAIR      55  37  50 SE9       30.22R
NEWCASTLE      FAIR      54  43  66 SE9       30.22S

$$
WYZ014>020-022>026-101>103-260500-
CENTRAL WYOMING

CITY           SKY/WX    TMP DP  RH WIND       PRES   REMARKS
BIG PINEY      FAIR      42  36  79 N7        30.24S
PINEDALE       FAIR      43  32  65 N5        30.26R
DUBOIS         FAIR      46  36  66 W6        30.27R
LANDER         CLOUDY    53  47  79 E15       30.16F
RIVERTON       FAIR      52  48  86 N5        30.20R
CASPER         CLOUDY    56  47  71 NW7       30.24R
DOUGLAS        FAIR      53  46  77 E9        30.22S

$$
WYZ021-027>030-104>119-260500-
SOUTHERN WYOMING

CITY           SKY/WX    TMP DP  RH WIND       PRES   REMARKS
EVANSTON       FAIR      59  19  21 W9        30.20R
FORT BRIDGER   FAIR      57  29  34 E12G21    30.24R
ROCK SPRINGS   CLOUDY    57  35  43 NE14      30.23R
DIXON          FAIR      55  32  41 NE3       30.24S
RAWLINS        FAIR      50  38  63 CALM      30.22R
SARATOGA       FAIR      52  37  58 S10       30.23S
LARAMIE        CLOUDY    53  41  63 SE23G30   30.26S
CHEYENNE       FAIR      56  46  69 S10       30.25S
TORRINGTON     FAIR      56  44  64 E8        30.18S
PINE BLUFFS    FAIR      52  43  71 S9        30.23S

$$




USA.gov is the U.S. government's official web portal to all federal, state and local government web resources and services.